Year,Month,Day,Hour,Minute,Value (Times are PST for temperature in C)
2015,02,18,09,16,6.20
2015,02,18,09,17,6.20
2015,02,18,09,18,6.20
2015,02,18,09,19,6.20
2015,02,18,09,20,6.20
2015,02,18,09,21,6.20
2015,02,18,09,22,6.20
2015,02,18,09,23,6.30
2015,02,18,09,24,6.30
2015,02,18,09,25,6.30
2015,02,18,09,26,6.40
2015,02,18,09,27,6.40
2015,02,18,09,28,6.40
2015,02,18,09,29,6.40
2015,02,18,09,30,6.50
2015,02,18,09,31,6.60
2015,02,18,09,32,6.60
2015,02,18,09,33,6.60
2015,02,18,09,34,6.70
2015,02,18,09,35,6.70
2015,02,18,09,36,6.80
2015,02,18,09,37,6.80
2015,02,18,09,38,6.80
2015,02,18,09,39,6.90
2015,02,18,09,40,7.00
2015,02,18,09,41,7.00
2015,02,18,09,42,7.10
2015,02,18,09,43,7.10
2015,02,18,09,44,7.20
2015,02,18,09,45,7.30
2015,02,18,09,46,7.40
2015,02,18,09,47,7.50
2015,02,18,09,48,7.60
2015,02,18,09,49,7.70
2015,02,18,09,50,7.80
2015,02,18,09,51,7.90
2015,02,18,09,52,7.90
2015,02,18,09,53,8.00
2015,02,18,09,54,8.00
2015,02,18,09,55,8.20
2015,02,18,09,56,8.30
2015,02,18,09,57,8.30
2015,02,18,09,58,8.30
2015,02,18,09,59,8.40
2015,02,18,10,00,8.40
2015,02,18,10,01,8.50
2015,02,18,10,02,8.50
2015,02,18,10,03,8.60
2015,02,18,10,04,8.60
2015,02,18,10,05,8.60
2015,02,18,10,06,8.70
2015,02,18,10,07,8.80
2015,02,18,10,08,8.90
2015,02,18,10,09,9.00
2015,02,18,10,10,9.10
2015,02,18,10,11,9.30
2015,02,18,10,12,9.30
2015,02,18,10,13,9.40
2015,02,18,10,14,9.40
2015,02,18,10,15,9.50
2015,02,18,10,16,9.60
2015,02,18,10,17,9.70
2015,02,18,10,18,9.70
2015,02,18,10,19,9.70
2015,02,18,10,20,9.80
2015,02,18,10,21,9.80
2015,02,18,10,22,9.90
2015,02,18,10,23,10.00
2015,02,18,10,24,10.10
2015,02,18,10,25,10.10
2015,02,18,10,26,10.20
2015,02,18,10,27,10.20
2015,02,18,10,28,10.30
2015,02,18,10,29,10.30
2015,02,18,10,30,10.40
2015,02,18,10,31,10.40
2015,02,18,10,32,10.40
2015,02,18,10,33,10.50
2015,02,18,10,34,10.60
2015,02,18,10,35,10.70
2015,02,18,10,36,10.80
2015,02,18,10,37,10.90
2015,02,18,10,38,10.90
2015,02,18,10,39,11.10
2015,02,18,10,40,11.10
2015,02,18,10,41,11.10
2015,02,18,10,42,11.20
2015,02,18,10,43,11.20
2015,02,18,10,44,11.20
2015,02,18,10,45,11.10
2015,02,18,10,46,11.10
2015,02,18,10,47,11.10
2015,02,18,10,48,11.20
2015,02,18,10,49,11.20
2015,02,18,10,50,11.10
2015,02,18,10,51,11.10
2015,02,18,10,52,11.10
2015,02,18,10,53,11.00
2015,02,18,10,54,10.90
2015,02,18,10,55,10.80
2015,02,18,10,56,10.70
2015,02,18,10,57,10.70
2015,02,18,10,58,10.70
2015,02,18,10,59,10.60
2015,02,18,11,00,10.60
2015,02,18,11,01,10.60
2015,02,18,11,02,10.60
2015,02,18,11,03,10.60
2015,02,18,11,04,10.70
2015,02,18,11,05,10.80
2015,02,18,11,06,10.80
2015,02,18,11,07,10.80
2015,02,18,11,08,10.70
2015,02,18,11,09,10.60
2015,02,18,11,10,10.60
2015,02,18,11,11,10.60
2015,02,18,11,12,10.60
2015,02,18,11,13,10.70
2015,02,18,11,14,10.70
2015,02,18,11,15,10.80
2015,02,18,11,16,10.80
2015,02,18,11,17,10.90
2015,02,18,11,18,11.00
2015,02,18,11,19,11.10
2015,02,18,11,20,11.20
2015,02,18,11,21,11.20
2015,02,18,11,22,11.30
2015,02,18,11,23,11.30
2015,02,18,11,24,11.20
2015,02,18,11,25,11.10
2015,02,18,11,26,11.10
2015,02,18,11,27,11.10
2015,02,18,11,28,11.20
2015,02,18,11,29,11.30
2015,02,18,11,30,11.30
2015,02,18,11,31,11.20
2015,02,18,11,32,11.10
2015,02,18,11,33,11.10
2015,02,18,11,34,11.10
2015,02,18,11,35,11.20
2015,02,18,11,36,11.30
2015,02,18,11,37,11.40
2015,02,18,11,38,11.30
2015,02,18,11,39,11.20
2015,02,18,11,40,11.10
2015,02,18,11,41,11.00
2015,02,18,11,42,10.90
2015,02,18,11,43,10.80
2015,02,18,11,44,10.70
2015,02,18,11,45,10.70
2015,02,18,11,46,10.60
2015,02,18,11,47,10.70
2015,02,18,11,48,10.70
2015,02,18,11,49,10.70
2015,02,18,11,50,10.60
2015,02,18,11,51,10.60
2015,02,18,11,52,10.70
2015,02,18,11,53,10.70
2015,02,18,11,54,10.80
2015,02,18,11,55,10.90
2015,02,18,11,56,11.10
2015,02,18,11,57,11.20
2015,02,18,11,58,11.30
2015,02,18,11,59,11.30
2015,02,18,12,00,11.30
2015,02,18,12,01,11.40
2015,02,18,12,02,11.40
2015,02,18,12,03,11.30
2015,02,18,12,04,11.30
2015,02,18,12,05,11.30
2015,02,18,12,06,11.20
2015,02,18,12,07,11.20
2015,02,18,12,08,11.20
2015,02,18,12,09,11.10
2015,02,18,12,10,11.10
2015,02,18,12,11,11.00
2015,02,18,12,12,10.90
2015,02,18,12,13,10.90
2015,02,18,12,14,10.80
2015,02,18,12,15,10.70
2015,02,18,12,16,10.70
2015,02,18,12,17,10.80
2015,02,18,12,18,10.90
2015,02,18,12,19,11.00
2015,02,18,12,20,11.00
2015,02,18,12,21,11.10
2015,02,18,12,22,11.10
2015,02,18,12,23,11.10
2015,02,18,12,24,11.10
2015,02,18,12,25,11.30
2015,02,18,12,26,11.30
2015,02,18,12,27,11.30
2015,02,18,12,28,11.30
2015,02,18,12,29,11.20
2015,02,18,12,30,11.20
2015,02,18,12,31,11.20
2015,02,18,12,32,11.20
2015,02,18,12,33,11.10
2015,02,18,12,34,11.10
2015,02,18,12,35,11.10
2015,02,18,12,36,11.10
2015,02,18,12,37,11.10
2015,02,18,12,38,11.10
2015,02,18,12,39,11.20
2015,02,18,12,40,11.20
2015,02,18,12,41,11.20
2015,02,18,12,42,11.30
2015,02,18,12,43,11.30
2015,02,18,12,44,11.30
2015,02,18,12,45,11.20
2015,02,18,12,46,11.10
2015,02,18,12,47,11.10
2015,02,18,12,48,11.10
2015,02,18,12,49,10.90
2015,02,18,12,50,10.90
2015,02,18,12,51,10.80
2015,02,18,12,52,10.70
2015,02,18,12,53,10.60
2015,02,18,12,54,10.60
2015,02,18,12,55,10.60
2015,02,18,12,56,10.60
2015,02,18,12,57,10.60
2015,02,18,12,58,10.60
2015,02,18,12,59,10.60
2015,02,18,13,00,10.70
2015,02,18,13,01,10.80
2015,02,18,13,02,10.90
2015,02,18,13,03,11.00
2015,02,18,13,04,11.10
2015,02,18,13,05,11.10
2015,02,18,13,06,11.10
2015,02,18,13,07,11.10
2015,02,18,13,08,11.10
2015,02,18,13,09,11.20
2015,02,18,13,10,11.20
2015,02,18,13,11,11.20
2015,02,18,13,12,11.20
2015,02,18,13,13,11.20
2015,02,18,13,14,11.10
2015,02,18,13,15,11.10
2015,02,18,13,16,11.10
2015,02,18,13,17,11.10
2015,02,18,13,18,11.10
2015,02,18,13,19,11.20
2015,02,18,13,20,11.20
2015,02,18,13,21,11.30
2015,02,18,13,22,11.30
2015,02,18,13,23,11.30
2015,02,18,13,24,11.20
2015,02,18,13,25,11.10
2015,02,18,13,26,11.10
2015,02,18,13,27,11.10
2015,02,18,13,28,11.10
2015,02,18,13,29,11.10
2015,02,18,13,30,11.10
2015,02,18,13,31,11.10
2015,02,18,13,32,11.10
2015,02,18,13,33,11.00
2015,02,18,13,34,11.00
2015,02,18,13,35,11.10
2015,02,18,13,36,11.10
2015,02,18,13,37,11.30
2015,02,18,13,38,11.30
2015,02,18,13,39,11.40
2015,02,18,13,40,11.40
2015,02,18,13,41,11.40
2015,02,18,13,42,11.40
2015,02,18,13,43,11.40
2015,02,18,13,44,11.40
2015,02,18,13,45,11.40
2015,02,18,13,46,11.40
2015,02,18,13,47,11.40
2015,02,18,13,48,11.40
2015,02,18,13,49,11.50
2015,02,18,13,50,11.50
2015,02,18,13,51,11.40
2015,02,18,13,52,11.40
2015,02,18,13,53,11.40
2015,02,18,13,54,11.40
2015,02,18,13,55,11.40
2015,02,18,13,56,11.40
2015,02,18,13,57,11.50
2015,02,18,13,58,11.60
2015,02,18,13,59,11.60
2015,02,18,14,00,11.50
2015,02,18,14,01,11.40
2015,02,18,14,02,11.40
2015,02,18,14,03,11.50
2015,02,18,14,04,11.60
2015,02,18,14,05,11.70
2015,02,18,14,06,11.70
2015,02,18,14,07,11.70
2015,02,18,14,08,11.60
2015,02,18,14,09,11.60
2015,02,18,14,10,11.60
2015,02,18,14,11,11.60
2015,02,18,14,12,11.60
2015,02,18,14,13,11.60
2015,02,18,14,14,11.60
2015,02,18,14,15,11.60
2015,02,18,14,16,11.60
2015,02,18,14,17,11.60
2015,02,18,14,18,11.60
2015,02,18,14,19,11.60
2015,02,18,14,20,11.70
2015,02,18,14,21,11.80
2015,02,18,14,22,11.80
2015,02,18,14,23,11.80
2015,02,18,14,24,11.80
2015,02,18,14,25,11.80
2015,02,18,14,26,11.80
2015,02,18,14,27,11.80
2015,02,18,14,28,11.80
2015,02,18,14,29,11.80
2015,02,18,14,30,11.80
2015,02,18,14,31,11.80
2015,02,18,14,32,11.80
2015,02,18,14,33,11.90
2015,02,18,14,34,11.90
2015,02,18,14,35,11.90
2015,02,18,14,36,12.00
2015,02,18,14,37,12.00
2015,02,18,14,38,12.10
2015,02,18,14,39,12.10
2015,02,18,14,40,12.20
2015,02,18,14,41,12.20
2015,02,18,14,42,12.30
2015,02,18,14,43,12.30
2015,02,18,14,44,12.30
2015,02,18,14,45,12.30
2015,02,18,14,46,12.30
2015,02,18,14,47,12.30
2015,02,18,14,48,12.30
2015,02,18,14,49,12.30
2015,02,18,14,50,12.30
2015,02,18,14,51,12.30
2015,02,18,14,52,12.30
2015,02,18,14,53,12.30
2015,02,18,14,54,12.30
2015,02,18,14,55,12.30
2015,02,18,14,56,12.30
2015,02,18,14,57,12.30
2015,02,18,14,58,12.30
2015,02,18,14,59,12.40
2015,02,18,15,00,12.50
2015,02,18,15,01,12.50
2015,02,18,15,02,12.50
2015,02,18,15,03,12.50
2015,02,18,15,04,12.40
2015,02,18,15,05,12.40
2015,02,18,15,06,12.50
2015,02,18,15,07,12.50
2015,02,18,15,08,12.50
2015,02,18,15,09,12.50
2015,02,18,15,10,12.60
2015,02,18,15,11,12.60
2015,02,18,15,12,12.70
2015,02,18,15,13,12.70
2015,02,18,15,14,12.80
2015,02,18,15,15,12.80
2015,02,18,15,16,12.80
2015,02,18,15,17,12.80
2015,02,18,15,18,12.80
2015,02,18,15,19,12.60
2015,02,18,15,20,12.50
2015,02,18,15,21,12.40
2015,02,18,15,22,12.30
2015,02,18,15,23,12.30
2015,02,18,15,24,12.30
2015,02,18,15,25,12.30
2015,02,18,15,26,12.30
2015,02,18,15,27,12.30
2015,02,18,15,28,12.30
2015,02,18,15,29,12.30
2015,02,18,15,30,12.40
2015,02,18,15,31,12.40
2015,02,18,15,32,12.40
2015,02,18,15,33,12.50
2015,02,18,15,34,12.50
2015,02,18,15,35,12.50
2015,02,18,15,36,12.50
2015,02,18,15,37,12.50
2015,02,18,15,38,12.50
2015,02,18,15,39,12.50
2015,02,18,15,40,12.50
2015,02,18,15,41,12.50
2015,02,18,15,42,12.50
2015,02,18,15,43,12.40
2015,02,18,15,44,12.40
2015,02,18,15,45,12.40
2015,02,18,15,46,12.40
2015,02,18,15,47,12.40
2015,02,18,15,48,12.40
2015,02,18,15,49,12.30
2015,02,18,15,50,12.30
2015,02,18,15,51,12.30
2015,02,18,15,52,12.30
2015,02,18,15,53,12.30
2015,02,18,15,54,12.30
2015,02,18,15,55,12.30
2015,02,18,15,56,12.30
2015,02,18,15,57,12.30
2015,02,18,15,58,12.30
2015,02,18,15,59,12.30
2015,02,18,16,00,12.30
2015,02,18,16,01,12.30
2015,02,18,16,02,12.30
2015,02,18,16,03,12.30
2015,02,18,16,04,12.30
2015,02,18,16,05,12.30
2015,02,18,16,06,12.30
2015,02,18,16,07,12.30
2015,02,18,16,08,12.30
2015,02,18,16,09,12.30
2015,02,18,16,10,12.30
2015,02,18,16,11,12.30
2015,02,18,16,12,12.30
2015,02,18,16,13,12.30
2015,02,18,16,14,12.30
2015,02,18,16,15,12.30
2015,02,18,16,16,12.30
2015,02,18,16,17,12.30
2015,02,18,16,18,12.20
2015,02,18,16,19,12.10
2015,02,18,16,20,12.00
2015,02,18,16,21,12.00
2015,02,18,16,22,11.90
2015,02,18,16,23,11.90
2015,02,18,16,24,11.80
2015,02,18,16,25,11.80
2015,02,18,16,26,11.80
2015,02,18,16,27,11.80
2015,02,18,16,28,11.70
2015,02,18,16,29,11.70
2015,02,18,16,30,11.70
2015,02,18,16,31,11.60
2015,02,18,16,32,11.60
2015,02,18,16,33,11.60
2015,02,18,16,34,11.60
2015,02,18,16,35,11.60
2015,02,18,16,36,11.60
2015,02,18,16,37,11.60
2015,02,18,16,38,11.60
2015,02,18,16,39,11.60
2015,02,18,16,40,11.50
2015,02,18,16,41,11.40
2015,02,18,16,42,11.40
2015,02,18,16,43,11.40
2015,02,18,16,44,11.30
2015,02,18,16,45,11.30
2015,02,18,16,46,11.30
2015,02,18,16,47,11.30
2015,02,18,16,48,11.30
2015,02,18,16,49,11.30
2015,02,18,16,50,11.30
2015,02,18,16,51,11.30
2015,02,18,16,52,11.30
2015,02,18,16,53,11.30
2015,02,18,16,54,11.30
2015,02,18,16,55,11.30
2015,02,18,16,56,11.30
2015,02,18,16,57,11.30
2015,02,18,16,58,11.30
2015,02,18,16,59,11.30
2015,02,18,17,00,11.30
2015,02,18,17,01,11.30
2015,02,18,17,02,11.30
2015,02,18,17,03,11.30
